Time,TemperatureF,DewpointF,PressureIn,WindDirection,WindDirectionDegrees,WindSpeedMPH,WindSpeedGustMPH,Humidity,HourlyPrecipIn,Conditions,Clouds,dailyrainin,SoftwareType,DateUTC
2013-02-16 00:03:00,38.1,10.6,30.35,North,0,0.0,0.0,32,0.00,,,0.00,WUHU216DAVISVP2,2013-02-16 07:03:00,
2013-02-16 00:08:00,38.1,9.9,30.36,North,0,0.0,0.0,31,0.00,,,0.00,WUHU216DAVISVP2,2013-02-16 07:08:00,
2013-02-16 00:13:00,39.0,10.7,30.36,North,0,0.0,0.0,31,0.00,,,0.00,WUHU216DAVISVP2,2013-02-16 07:13:00,
2013-02-16 00:18:00,39.6,10.5,30.36,North,0,0.0,0.0,30,0.00,,,0.00,WUHU216DAVISVP2,2013-02-16 07:18:00,
2013-02-16 00:23:00,39.7,10.6,30.36,North,0,0.0,0.0,30,0.00,,,0.00,WUHU216DAVISVP2,2013-02-16 07:23:00,
2013-02-16 00:28:00,39.9,10.7,30.36,North,0,0.0,0.0,30,0.00,,,0.00,WUHU216DAVISVP2,2013-02-16 07:28:00,
2013-02-16 00:33:00,39.4,11.0,30.36,North,0,0.0,0.0,31,0.00,,,0.00,WUHU216DAVISVP2,2013-02-16 07:33:00,
2013-02-16 00:38:00,39.7,11.3,30.35,North,0,0.0,0.0,31,0.00,,,0.00,WUHU216DAVISVP2,2013-02-16 07:38:00,
2013-02-16 00:44:00,38.6,11.0,30.35,North,0,0.0,0.0,32,0.00,,,0.00,WUHU216DAVISVP2,2013-02-16 07:44:00,
2013-02-16 00:49:00,37.9,11.8,30.36,North,0,0.0,0.0,34,0.00,,,0.00,WUHU216DAVISVP2,2013-02-16 07:49:00,
2013-02-16 00:54:00,38.0,11.9,30.36,North,0,0.0,0.0,34,0.00,,,0.00,WUHU216DAVISVP2,2013-02-16 07:54:00,
2013-02-16 00:59:00,38.2,12.0,30.36,North,0,0.0,0.0,34,0.00,,,0.00,WUHU216DAVISVP2,2013-02-16 07:59:00,
2013-02-16 01:04:00,38.3,12.1,30.36,North,0,0.0,0.0,34,0.00,,,0.00,WUHU216DAVISVP2,2013-02-16 08:04:00,
2013-02-16 01:09:00,38.3,12.8,30.36,North,0,0.0,0.0,35,0.00,,,0.00,WUHU216DAVISVP2,2013-02-16 08:09:00,
2013-02-16 01:14:00,38.5,13.0,30.37,North,0,0.0,0.0,35,0.00,,,0.00,WUHU216DAVISVP2,2013-02-16 08:14:00,
2013-02-16 01:19:00,38.8,13.2,30.36,North,0,0.0,0.0,35,0.00,,,0.00,WUHU216DAVISVP2,2013-02-16 08:19:00,
2013-02-16 01:24:00,38.8,13.2,30.36,North,0,0.0,0.0,35,0.00,,,0.00,WUHU216DAVISVP2,2013-02-16 08:24:00,
2013-02-16 01:29:00,38.7,13.1,30.36,North,0,0.0,0.0,35,0.00,,,0.00,WUHU216DAVISVP2,2013-02-16 08:29:00,
2013-02-16 01:34:00,38.5,13.0,30.36,North,0,0.0,0.0,35,0.00,,,0.00,WUHU216DAVISVP2,2013-02-16 08:34:00,
2013-02-16 01:39:00,38.0,12.5,30.36,North,0,0.0,0.0,35,0.00,,,0.00,WUHU216DAVISVP2,2013-02-16 08:39:00,
2013-02-16 01:44:00,37.7,12.9,30.35,North,0,0.0,0.0,36,0.00,,,0.00,WUHU216DAVISVP2,2013-02-16 08:44:00,
2013-02-16 01:49:00,37.6,12.8,30.36,North,0,0.0,0.0,36,0.00,,,0.00,WUHU216DAVISVP2,2013-02-16 08:49:00,
2013-02-16 01:54:00,37.5,12.7,30.36,North,0,0.0,0.0,36,0.00,,,0.00,WUHU216DAVISVP2,2013-02-16 08:54:00,
2013-02-16 01:59:00,37.2,12.4,30.35,North,0,0.0,0.0,36,0.00,,,0.00,WUHU216DAVISVP2,2013-02-16 08:59:00,
2013-02-16 02:04:00,36.9,12.8,30.36,North,0,0.0,0.0,37,0.00,,,0.00,WUHU216DAVISVP2,2013-02-16 09:04:00,
2013-02-16 02:10:00,36.7,12.6,30.35,North,0,0.0,0.0,37,0.00,,,0.00,WUHU216DAVISVP2,2013-02-16 09:10:00,
2013-02-16 02:15:00,36.8,12.7,30.35,North,0,0.0,0.0,37,0.00,,,0.00,WUHU216DAVISVP2,2013-02-16 09:15:00,
2013-02-16 02:20:00,36.7,12.6,30.36,North,0,0.0,0.0,37,0.00,,,0.00,WUHU216DAVISVP2,2013-02-16 09:20:00,
2013-02-16 02:25:00,36.8,12.7,30.36,North,0,0.0,0.0,37,0.00,,,0.00,WUHU216DAVISVP2,2013-02-16 09:25:00,
2013-02-16 02:30:00,37.1,13.0,30.36,North,0,0.0,0.0,37,0.00,,,0.00,WUHU216DAVISVP2,2013-02-16 09:30:00,
2013-02-16 02:35:00,37.3,13.2,30.35,North,0,0.0,0.0,37,0.00,,,0.00,WUHU216DAVISVP2,2013-02-16 09:35:00,
2013-02-16 02:40:00,37.4,13.3,30.35,North,0,0.0,0.0,37,0.00,,,0.00,WUHU216DAVISVP2,2013-02-16 09:40:00,
2013-02-16 02:45:00,37.3,13.2,30.36,North,0,0.0,0.0,37,0.00,,,0.00,WUHU216DAVISVP2,2013-02-16 09:45:00,
2013-02-16 02:50:00,37.5,13.3,30.36,North,0,0.0,0.0,37,0.00,,,0.00,WUHU216DAVISVP2,2013-02-16 09:50:00,
2013-02-16 02:55:00,37.6,13.4,30.36,North,0,0.0,0.0,37,0.00,,,0.00,WUHU216DAVISVP2,2013-02-16 09:55:00,
2013-02-16 03:00:00,37.8,13.6,30.36,North,0,0.0,0.0,37,0.00,,,0.00,WUHU216DAVISVP2,2013-02-16 10:00:00,
2013-02-16 03:05:00,37.8,13.0,30.36,North,0,0.0,0.0,36,0.00,,,0.00,WUHU216DAVISVP2,2013-02-16 10:05:00,
2013-02-16 03:10:00,37.9,13.1,30.36,North,0,0.0,0.0,36,0.00,,,0.00,WUHU216DAVISVP2,2013-02-16 10:10:00,
2013-02-16 03:15:00,38.4,13.5,30.36,North,0,0.0,0.0,36,0.00,,,0.00,WUHU216DAVISVP2,2013-02-16 10:15:00,
2013-02-16 03:21:00,38.6,13.1,30.36,North,0,0.0,0.0,35,0.00,,,0.00,WUHU216DAVISVP2,2013-02-16 10:21:00,
2013-02-16 03:26:00,38.6,13.1,30.36,North,0,0.0,0.0,35,0.00,,,0.00,WUHU216DAVISVP2,2013-02-16 10:26:00,
2013-02-16 03:31:00,38.5,13.0,30.36,North,0,0.0,0.0,35,0.00,,,0.00,WUHU216DAVISVP2,2013-02-16 10:31:00,
2013-02-16 03:36:00,38.3,12.8,30.36,North,0,0.0,0.0,35,0.00,,,0.00,WUHU216DAVISVP2,2013-02-16 10:36:00,
2013-02-16 03:41:00,38.7,13.1,30.37,North,0,0.0,0.0,35,0.00,,,0.00,WUHU216DAVISVP2,2013-02-16 10:41:00,
2013-02-16 03:46:00,38.8,12.6,30.36,North,0,0.0,0.0,34,0.00,,,0.00,WUHU216DAVISVP2,2013-02-16 10:46:00,
2013-02-16 03:51:00,38.6,12.4,30.36,North,0,0.0,0.0,34,0.00,,,0.00,WUHU216DAVISVP2,2013-02-16 10:51:00,
2013-02-16 03:56:00,38.1,12.6,30.36,North,0,0.0,0.0,35,0.00,,,0.00,WUHU216DAVISVP2,2013-02-16 10:56:00,
2013-02-16 04:01:00,38.2,12.7,30.36,North,0,0.0,0.0,35,0.00,,,0.00,WUHU216DAVISVP2,2013-02-16 11:01:00,
2013-02-16 04:06:00,38.4,12.2,30.36,North,0,0.0,0.0,34,0.00,,,0.00,WUHU216DAVISVP2,2013-02-16 11:06:00,
2013-02-16 04:11:00,38.8,12.6,30.36,North,0,0.0,0.0,34,0.00,,,0.00,WUHU216DAVISVP2,2013-02-16 11:11:00,
2013-02-16 04:16:00,39.0,12.7,30.36,North,0,0.0,0.0,34,0.00,,,0.00,WUHU216DAVISVP2,2013-02-16 11:16:00,
2013-02-16 04:21:00,38.7,12.5,30.35,North,0,0.0,0.0,34,0.00,,,0.00,WUHU216DAVISVP2,2013-02-16 11:21:00,
2013-02-16 04:26:00,38.5,12.3,30.36,North,0,0.0,0.0,34,0.00,,,0.00,WUHU216DAVISVP2,2013-02-16 11:26:00,
2013-02-16 04:31:00,38.2,12.7,30.36,North,0,0.0,0.0,35,0.00,,,0.00,WUHU216DAVISVP2,2013-02-16 11:31:00,
2013-02-16 04:36:00,37.3,12.5,30.36,North,0,0.0,0.0,36,0.00,,,0.00,WUHU216DAVISVP2,2013-02-16 11:36:00,
2013-02-16 04:42:00,37.1,13.0,30.36,North,0,0.0,0.0,37,0.00,,,0.00,WUHU216DAVISVP2,2013-02-16 11:42:00,
2013-02-16 04:47:00,36.0,13.2,30.35,North,0,0.0,0.0,39,0.00,,,0.00,WUHU216DAVISVP2,2013-02-16 11:47:00,
2013-02-16 04:52:00,35.3,13.2,30.36,North,0,0.0,0.0,40,0.00,,,0.00,WUHU216DAVISVP2,2013-02-16 11:52:00,
2013-02-16 04:57:00,35.6,13.4,30.36,North,0,0.0,0.0,40,0.00,,,0.00,WUHU216DAVISVP2,2013-02-16 11:57:00,
2013-02-16 05:02:00,35.6,13.4,30.36,North,0,0.0,0.0,40,0.00,,,0.00,WUHU216DAVISVP2,2013-02-16 12:02:00,
2013-02-16 05:07:00,35.3,13.7,30.36,North,0,0.0,0.0,41,0.00,,,0.00,WUHU216DAVISVP2,2013-02-16 12:07:00,
2013-02-16 05:12:00,34.8,13.3,30.36,North,0,0.0,0.0,41,0.00,,,0.00,WUHU216DAVISVP2,2013-02-16 12:12:00,
2013-02-16 05:17:00,35.1,13.6,30.36,North,0,0.0,0.0,41,0.00,,,0.00,WUHU216DAVISVP2,2013-02-16 12:17:00,
2013-02-16 05:22:00,35.1,13.6,30.35,North,0,0.0,0.0,41,0.00,,,0.00,WUHU216DAVISVP2,2013-02-16 12:22:00,
2013-02-16 05:27:00,35.6,13.4,30.36,North,0,0.0,0.0,40,0.00,,,0.00,WUHU216DAVISVP2,2013-02-16 12:27:00,
2013-02-16 05:32:00,35.2,13.7,30.35,North,0,0.0,0.0,41,0.00,,,0.00,WUHU216DAVISVP2,2013-02-16 12:32:00,
2013-02-16 05:37:00,34.8,13.3,30.36,North,0,0.0,0.0,41,0.00,,,0.00,WUHU216DAVISVP2,2013-02-16 12:37:00,
2013-02-16 05:42:00,34.5,13.6,30.36,North,0,0.0,0.0,42,0.00,,,0.00,WUHU216DAVISVP2,2013-02-16 12:42:00,
2013-02-16 05:47:00,34.3,13.4,30.35,North,0,0.0,0.0,42,0.00,,,0.00,WUHU216DAVISVP2,2013-02-16 12:47:00,
2013-02-16 05:52:00,33.6,13.8,30.35,North,0,0.0,0.0,44,0.00,,,0.00,WUHU216DAVISVP2,2013-02-16 12:52:00,
2013-02-16 05:57:00,33.8,14.0,30.36,North,0,0.0,0.0,44,0.00,,,0.00,WUHU216DAVISVP2,2013-02-16 12:57:00,
2013-02-16 06:02:00,34.8,13.9,30.36,North,0,0.0,0.0,42,0.00,,,0.00,WUHU216DAVISVP2,2013-02-16 13:02:00,
2013-02-16 06:08:00,35.9,13.7,30.36,North,0,0.0,0.0,40,0.00,,,0.00,WUHU216DAVISVP2,2013-02-16 13:08:00,
2013-02-16 06:13:00,36.1,13.9,30.36,North,0,0.0,0.0,40,0.00,,,0.00,WUHU216DAVISVP2,2013-02-16 13:13:00,
2013-02-16 06:18:00,36.4,14.2,30.36,North,0,0.0,0.0,40,0.00,,,0.00,WUHU216DAVISVP2,2013-02-16 13:18:00,
2013-02-16 06:23:00,36.6,13.8,30.36,North,0,0.0,0.0,39,0.00,,,0.00,WUHU216DAVISVP2,2013-02-16 13:23:00,
2013-02-16 06:28:00,35.9,13.7,30.36,North,0,0.0,0.0,40,0.00,,,0.00,WUHU216DAVISVP2,2013-02-16 13:28:00,
2013-02-16 06:33:00,34.7,13.2,30.36,North,0,0.0,0.0,41,0.00,,,0.00,WUHU216DAVISVP2,2013-02-16 13:33:00,
2013-02-16 06:38:00,33.3,13.0,30.36,North,0,0.0,0.0,43,0.00,,,0.00,WUHU216DAVISVP2,2013-02-16 13:38:00,
2013-02-16 06:43:00,30.0,12.6,30.36,North,0,0.0,0.0,48,0.00,,,0.00,WUHU216DAVISVP2,2013-02-16 13:43:00,
2013-02-16 06:48:00,29.1,12.7,30.36,North,0,0.0,0.0,50,0.00,,,0.00,WUHU216DAVISVP2,2013-02-16 13:48:00,
2013-02-16 06:53:00,30.3,13.3,30.37,North,0,0.0,0.0,49,0.00,,,0.00,WUHU216DAVISVP2,2013-02-16 13:53:00,
2013-02-16 06:58:00,31.1,13.1,30.37,North,0,0.0,0.0,47,0.00,,,0.00,WUHU216DAVISVP2,2013-02-16 13:58:00,
2013-02-16 07:03:00,30.4,13.4,30.37,North,0,0.0,0.0,49,0.00,,,0.00,WUHU216DAVISVP2,2013-02-16 14:03:00,
2013-02-16 07:08:00,30.6,13.6,30.37,North,0,0.0,0.0,49,0.00,,,0.00,WUHU216DAVISVP2,2013-02-16 14:08:00,
2013-02-16 07:13:00,32.7,14.6,30.37,North,0,0.0,0.0,47,0.00,,,0.00,WUHU216DAVISVP2,2013-02-16 14:13:00,
2013-02-16 07:18:00,35.3,14.9,30.37,NNE,27,3.0,5.0,43,0.00,,,0.00,WUHU216DAVISVP2,2013-02-16 14:18:00,
2013-02-16 07:23:00,38.5,14.9,30.37,NNE,19,3.0,6.0,38,0.00,,,0.00,WUHU216DAVISVP2,2013-02-16 14:23:00,
2013-02-16 07:29:00,40.1,15.0,30.37,NNE,25,2.0,4.0,36,0.00,,,0.00,WUHU216DAVISVP2,2013-02-16 14:29:00,
2013-02-16 07:34:00,41.3,15.5,30.37,NNE,29,3.0,4.0,35,0.00,,,0.00,WUHU216DAVISVP2,2013-02-16 14:34:00,
2013-02-16 07:39:00,42.3,15.0,30.37,NNE,17,2.0,3.0,33,0.00,,,0.00,WUHU216DAVISVP2,2013-02-16 14:39:00,
2013-02-16 07:44:00,43.1,15.0,30.38,NNE,25,3.0,6.0,32,0.00,,,0.00,WUHU216DAVISVP2,2013-02-16 14:44:00,
2013-02-16 07:49:00,44.0,15.1,30.38,NNE,31,2.0,5.0,31,0.00,,,0.00,WUHU216DAVISVP2,2013-02-16 14:49:00,
2013-02-16 07:54:00,44.8,15.8,30.38,NE,46,1.0,2.0,31,0.00,,,0.00,WUHU216DAVISVP2,2013-02-16 14:54:00,
2013-02-16 07:59:00,45.4,15.5,30.38,NE,34,2.0,4.0,30,0.00,,,0.00,WUHU216DAVISVP2,2013-02-16 14:59:00,
2013-02-16 08:04:00,45.9,16.0,30.38,NNE,24,2.0,5.0,30,0.00,,,0.00,WUHU216DAVISVP2,2013-02-16 15:04:00,
2013-02-16 08:09:00,46.1,15.4,30.38,NNE,21,3.0,8.0,29,0.00,,,0.00,WUHU216DAVISVP2,2013-02-16 15:09:00,
2013-02-16 08:14:00,46.2,16.2,30.38,NNE,21,3.0,5.0,30,0.00,,,0.00,WUHU216DAVISVP2,2013-02-16 15:14:00,
2013-02-16 08:19:00,46.6,15.8,30.38,NNE,28,3.0,7.0,29,0.00,,,0.00,WUHU216DAVISVP2,2013-02-16 15:19:00,
2013-02-16 08:24:00,46.8,16.0,30.39,NNE,18,3.0,6.0,29,0.00,,,0.00,WUHU216DAVISVP2,2013-02-16 15:24:00,
2013-02-16 08:29:00,47.1,16.2,30.39,NNE,12,3.0,6.0,29,0.00,,,0.00,WUHU216DAVISVP2,2013-02-16 15:29:00,
2013-02-16 08:34:00,47.4,16.5,30.39,NE,43,3.0,5.0,29,0.00,,,0.00,WUHU216DAVISVP2,2013-02-16 15:34:00,
2013-02-16 08:39:00,47.6,15.9,30.39,NE,54,4.0,9.0,28,0.00,,,0.00,WUHU216DAVISVP2,2013-02-16 15:39:00,
2013-02-16 08:44:00,47.6,15.1,30.39,ENE,58,3.0,7.0,27,0.00,,,0.00,WUHU216DAVISVP2,2013-02-16 15:44:00,
2013-02-16 08:49:00,47.8,16.0,30.39,NNE,31,4.0,7.0,28,0.00,,,0.00,WUHU216DAVISVP2,2013-02-16 15:49:00,
2013-02-16 08:54:00,48.1,15.5,30.39,NNE,14,3.0,8.0,27,0.00,,,0.00,WUHU216DAVISVP2,2013-02-16 15:54:00,
2013-02-16 09:00:00,48.5,15.0,30.39,NE,51,2.0,5.0,26,0.00,,,0.00,WUHU216DAVISVP2,2013-02-16 16:00:00,
2013-02-16 09:05:00,48.5,14.1,30.39,NE,50,4.0,9.0,25,0.00,,,0.00,WUHU216DAVISVP2,2013-02-16 16:05:00,
2013-02-16 09:10:00,48.4,14.9,30.39,ENE,63,4.0,10.0,26,0.00,,,0.00,WUHU216DAVISVP2,2013-02-16 16:10:00,
2013-02-16 09:15:00,48.8,16.1,30.39,NE,53,3.0,6.0,27,0.00,,,0.00,WUHU216DAVISVP2,2013-02-16 16:15:00,
2013-02-16 09:20:00,48.9,14.4,30.39,ENE,63,6.0,9.0,25,0.00,,,0.00,WUHU216DAVISVP2,2013-02-16 16:20:00,
2013-02-16 09:25:00,49.2,15.6,30.39,ENE,68,4.0,7.0,26,0.00,,,0.00,WUHU216DAVISVP2,2013-02-16 16:25:00,
2013-02-16 09:30:00,49.2,14.7,30.39,East,85,6.0,10.0,25,0.00,,,0.00,WUHU216DAVISVP2,2013-02-16 16:30:00,
2013-02-16 09:35:00,49.4,14.9,30.39,East,96,3.0,8.0,25,0.00,,,0.00,WUHU216DAVISVP2,2013-02-16 16:35:00,
2013-02-16 09:40:00,49.6,15.0,30.39,ENE,70,6.0,11.0,25,0.00,,,0.00,WUHU216DAVISVP2,2013-02-16 16:40:00,
2013-02-16 09:45:00,49.7,15.1,30.40,ENE,67,6.0,11.0,25,0.00,,,0.00,WUHU216DAVISVP2,2013-02-16 16:45:00,
2013-02-16 09:50:00,49.8,14.3,30.40,East,82,7.0,11.0,24,0.00,,,0.00,WUHU216DAVISVP2,2013-02-16 16:50:00,
2013-02-16 09:55:00,50.1,15.5,30.39,East,92,5.0,9.0,25,0.00,,,0.00,WUHU216DAVISVP2,2013-02-16 16:55:00,
2013-02-16 10:00:00,50.5,14.9,30.39,East,96,5.0,9.0,24,0.00,,,0.00,WUHU216DAVISVP2,2013-02-16 17:00:00,
2013-02-16 10:06:00,50.8,15.1,30.39,East,92,6.0,10.0,24,0.00,,,0.00,WUHU216DAVISVP2,2013-02-16 17:06:00,
2013-02-16 10:11:00,51.0,15.3,30.39,ESE,102,6.0,9.0,24,0.00,,,0.00,WUHU216DAVISVP2,2013-02-16 17:11:00,
2013-02-16 10:16:00,51.4,15.7,30.38,East,92,5.0,9.0,24,0.00,,,0.00,WUHU216DAVISVP2,2013-02-16 17:16:00,
2013-02-16 10:21:00,51.7,15.0,30.38,East,84,5.0,11.0,23,0.00,,,0.00,WUHU216DAVISVP2,2013-02-16 17:21:00,
2013-02-16 10:26:00,51.8,15.0,30.38,East,89,5.0,10.0,23,0.00,,,0.00,WUHU216DAVISVP2,2013-02-16 17:26:00,
2013-02-16 10:31:00,52.1,15.3,30.38,ENE,77,6.0,10.0,23,0.00,,,0.00,WUHU216DAVISVP2,2013-02-16 17:31:00,
2013-02-16 10:36:00,52.4,15.5,30.38,East,81,4.0,11.0,23,0.00,,,0.00,WUHU216DAVISVP2,2013-02-16 17:36:00,
2013-02-16 10:41:00,53.1,15.1,30.38,ENE,70,5.0,8.0,22,0.00,,,0.00,WUHU216DAVISVP2,2013-02-16 17:41:00,
2013-02-16 10:46:00,53.3,15.3,30.38,ENE,78,4.0,9.0,22,0.00,,,0.00,WUHU216DAVISVP2,2013-02-16 17:46:00,
2013-02-16 10:51:00,53.5,14.4,30.38,East,92,6.0,19.0,21,0.00,,,0.00,WUHU216DAVISVP2,2013-02-16 17:51:00,
2013-02-16 10:56:00,53.6,13.4,30.37,ESE,107,7.0,12.0,20,0.00,,,0.00,WUHU216DAVISVP2,2013-02-16 17:56:00,
2013-02-16 11:01:00,53.9,14.8,30.37,East,93,5.0,9.0,21,0.00,,,0.00,WUHU216DAVISVP2,2013-02-16 18:01:00,
2013-02-16 11:06:00,54.1,13.8,30.37,East,83,6.0,10.0,20,0.00,,,0.00,WUHU216DAVISVP2,2013-02-16 18:06:00,
2013-02-16 11:11:00,54.4,12.9,30.37,East,81,6.0,12.0,19,0.00,,,0.00,WUHU216DAVISVP2,2013-02-16 18:11:00,
2013-02-16 11:16:00,54.3,12.8,30.37,ENE,62,7.0,15.0,19,0.00,,,0.00,WUHU216DAVISVP2,2013-02-16 18:16:00,
2013-02-16 11:22:00,54.3,11.6,30.37,East,82,7.0,12.0,18,0.00,,,0.00,WUHU216DAVISVP2,2013-02-16 18:22:00,
2013-02-16 11:27:00,54.2,12.8,30.36,East,97,7.0,10.0,19,0.00,,,0.00,WUHU216DAVISVP2,2013-02-16 18:27:00,
2013-02-16 11:32:00,54.8,12.0,30.36,East,95,7.0,12.0,18,0.00,,,0.00,WUHU216DAVISVP2,2013-02-16 18:32:00,
2013-02-16 11:37:00,55.2,12.4,30.36,East,94,8.0,11.0,18,0.00,,,0.00,WUHU216DAVISVP2,2013-02-16 18:37:00,
2013-02-16 11:42:00,55.5,11.3,30.35,East,86,7.0,13.0,17,0.00,,,0.00,WUHU216DAVISVP2,2013-02-16 18:42:00,
2013-02-16 11:47:00,55.3,12.4,30.35,East,81,8.0,13.0,18,0.00,,,0.00,WUHU216DAVISVP2,2013-02-16 18:47:00,
2013-02-16 11:52:00,55.1,11.0,30.35,ENE,77,9.0,15.0,17,0.00,,,0.00,WUHU216DAVISVP2,2013-02-16 18:52:00,
2013-02-16 11:57:00,55.3,11.2,30.35,East,81,8.0,13.0,17,0.00,,,0.00,WUHU216DAVISVP2,2013-02-16 18:57:00,
2013-02-16 12:02:00,55.8,12.9,30.34,East,85,7.0,16.0,18,0.00,,,0.00,WUHU216DAVISVP2,2013-02-16 19:02:00,
2013-02-16 12:07:00,56.1,11.8,30.34,ESE,108,7.0,12.0,17,0.00,,,0.00,WUHU216DAVISVP2,2013-02-16 19:07:00,
2013-02-16 12:12:00,55.9,11.6,30.34,East,94,7.0,12.0,17,0.00,,,0.00,WUHU216DAVISVP2,2013-02-16 19:12:00,
2013-02-16 12:17:00,55.9,11.6,30.34,East,92,6.0,13.0,17,0.00,,,0.00,WUHU216DAVISVP2,2013-02-16 19:17:00,
2013-02-16 12:22:00,56.0,11.7,30.33,East,89,9.0,14.0,17,0.00,,,0.00,WUHU216DAVISVP2,2013-02-16 19:22:00,
2013-02-16 12:27:00,56.0,11.7,30.33,East,89,7.0,13.0,17,0.00,,,0.00,WUHU216DAVISVP2,2013-02-16 19:27:00,
2013-02-16 12:32:00,56.1,10.4,30.32,East,92,9.0,15.0,16,0.00,,,0.00,WUHU216DAVISVP2,2013-02-16 19:32:00,
2013-02-16 12:37:00,56.3,10.6,30.32,ESE,102,8.0,13.0,16,0.00,,,0.00,WUHU216DAVISVP2,2013-02-16 19:37:00,
2013-02-16 12:43:00,56.4,10.7,30.32,East,84,9.0,14.0,16,0.00,,,0.00,WUHU216DAVISVP2,2013-02-16 19:43:00,
2013-02-16 12:48:00,57.0,11.2,30.31,East,95,8.0,12.0,16,0.00,,,0.00,WUHU216DAVISVP2,2013-02-16 19:48:00,
2013-02-16 12:53:00,57.4,11.5,30.31,East,98,8.0,13.0,16,0.00,,,0.00,WUHU216DAVISVP2,2013-02-16 19:53:00,
2013-02-16 12:58:00,57.7,11.7,30.31,East,101,7.0,13.0,16,0.00,,,0.00,WUHU216DAVISVP2,2013-02-16 19:58:00,
2013-02-16 13:03:00,58.3,10.8,30.30,ESE,104,8.0,13.0,15,0.00,,,0.00,WUHU216DAVISVP2,2013-02-16 20:03:00,
2013-02-16 13:08:00,58.1,10.6,30.30,East,101,6.0,10.0,15,0.00,,,0.00,WUHU216DAVISVP2,2013-02-16 20:08:00,
2013-02-16 13:13:00,58.0,10.5,30.29,ESE,113,6.0,12.0,15,0.00,,,0.00,WUHU216DAVISVP2,2013-02-16 20:13:00,
2013-02-16 13:18:00,58.3,9.2,30.29,ESE,105,7.0,14.0,14,0.00,,,0.00,WUHU216DAVISVP2,2013-02-16 20:18:00,
2013-02-16 13:23:00,58.6,11.0,30.29,East,93,7.0,11.0,15,0.00,,,0.00,WUHU216DAVISVP2,2013-02-16 20:23:00,
2013-02-16 13:28:00,59.0,11.3,30.28,East,90,7.0,14.0,15,0.00,,,0.00,WUHU216DAVISVP2,2013-02-16 20:28:00,
2013-02-16 13:33:00,59.3,11.6,30.28,East,101,5.0,13.0,15,0.00,,,0.00,WUHU216DAVISVP2,2013-02-16 20:33:00,
2013-02-16 13:38:00,58.9,11.2,30.27,ESE,106,7.0,13.0,15,0.00,,,0.00,WUHU216DAVISVP2,2013-02-16 20:38:00,
2013-02-16 13:43:00,58.8,9.6,30.27,East,94,8.0,12.0,14,0.00,,,0.00,WUHU216DAVISVP2,2013-02-16 20:43:00,
2013-02-16 13:48:00,58.9,11.2,30.27,East,91,6.0,11.0,15,0.00,,,0.00,WUHU216DAVISVP2,2013-02-16 20:48:00,
2013-02-16 13:53:00,59.2,11.5,30.27,East,97,4.0,8.0,15,0.00,,,0.00,WUHU216DAVISVP2,2013-02-16 20:53:00,
2013-02-16 13:58:00,59.3,11.6,30.26,East,84,8.0,12.0,15,0.00,,,0.00,WUHU216DAVISVP2,2013-02-16 20:58:00,
2013-02-16 14:03:00,59.6,10.2,30.26,East,82,7.0,11.0,14,0.00,,,0.00,WUHU216DAVISVP2,2013-02-16 21:03:00,
2013-02-16 14:09:00,59.6,11.8,30.26,East,84,5.0,10.0,15,0.00,,,0.00,WUHU216DAVISVP2,2013-02-16 21:09:00,
2013-02-16 14:14:00,59.8,12.0,30.26,ENE,64,5.0,10.0,15,0.00,,,0.00,WUHU216DAVISVP2,2013-02-16 21:14:00,
2013-02-16 14:19:00,59.9,10.5,30.25,ENE,78,6.0,10.0,14,0.00,,,0.00,WUHU216DAVISVP2,2013-02-16 21:19:00,
2013-02-16 14:24:00,59.8,12.0,30.25,ENE,74,5.0,11.0,15,0.00,,,0.00,WUHU216DAVISVP2,2013-02-16 21:24:00,
2013-02-16 14:29:00,60.3,10.8,30.25,East,87,4.0,8.0,14,0.00,,,0.00,WUHU216DAVISVP2,2013-02-16 21:29:00,
2013-02-16 14:34:00,60.4,10.9,30.24,East,84,4.0,8.0,14,0.00,,,0.00,WUHU216DAVISVP2,2013-02-16 21:34:00,
2013-02-16 14:39:00,60.6,9.3,30.24,ESE,112,7.0,14.0,13,0.00,,,0.00,WUHU216DAVISVP2,2013-02-16 21:39:00,
2013-02-16 14:44:00,60.6,9.3,30.24,East,89,5.0,9.0,13,0.00,,,0.00,WUHU216DAVISVP2,2013-02-16 21:44:00,
2013-02-16 14:49:00,61.4,11.7,30.24,East,88,5.0,11.0,14,0.00,,,0.00,WUHU216DAVISVP2,2013-02-16 21:49:00,
2013-02-16 14:54:00,61.6,10.1,30.24,ESE,104,6.0,12.0,13,0.00,,,0.00,WUHU216DAVISVP2,2013-02-16 21:54:00,
2013-02-16 14:59:00,61.5,10.0,30.23,ESE,116,7.0,13.0,13,0.00,,,0.00,WUHU216DAVISVP2,2013-02-16 21:59:00,
2013-02-16 15:04:00,61.7,10.2,30.23,East,91,7.0,14.0,13,0.00,,,0.00,WUHU216DAVISVP2,2013-02-16 22:04:00,
2013-02-16 15:09:00,61.7,10.2,30.22,ESE,114,5.0,12.0,13,0.00,,,0.00,WUHU216DAVISVP2,2013-02-16 22:09:00,
2013-02-16 15:14:00,61.4,10.0,30.22,ESE,105,5.0,13.0,13,0.00,,,0.00,WUHU216DAVISVP2,2013-02-16 22:14:00,
2013-02-16 15:19:00,61.3,9.9,30.22,East,93,6.0,13.0,13,0.00,,,0.00,WUHU216DAVISVP2,2013-02-16 22:19:00,
2013-02-16 15:24:00,61.2,9.8,30.22,East,94,6.0,11.0,13,0.00,,,0.00,WUHU216DAVISVP2,2013-02-16 22:24:00,
2013-02-16 15:29:00,61.4,10.0,30.22,East,87,6.0,10.0,13,0.00,,,0.00,WUHU216DAVISVP2,2013-02-16 22:29:00,
2013-02-16 15:35:00,61.2,9.8,30.22,East,100,5.0,10.0,13,0.00,,,0.00,WUHU216DAVISVP2,2013-02-16 22:35:00,
2013-02-16 15:40:00,61.4,10.0,30.21,East,98,5.0,10.0,13,0.00,,,0.00,WUHU216DAVISVP2,2013-02-16 22:40:00,
2013-02-16 15:45:00,61.9,10.4,30.21,ESE,111,6.0,12.0,13,0.00,,,0.00,WUHU216DAVISVP2,2013-02-16 22:45:00,
2013-02-16 15:50:00,61.8,8.4,30.21,ESE,104,6.0,11.0,12,0.00,,,0.00,WUHU216DAVISVP2,2013-02-16 22:50:00,
2013-02-16 15:55:00,61.6,8.3,30.21,ESE,111,6.0,11.0,12,0.00,,,0.00,WUHU216DAVISVP2,2013-02-16 22:55:00,
2013-02-16 16:00:00,61.7,8.4,30.21,ESE,117,8.0,13.0,12,0.00,,,0.00,WUHU216DAVISVP2,2013-02-16 23:00:00,
2013-02-16 16:05:00,61.6,8.3,30.20,East,98,5.0,10.0,12,0.00,,,0.00,WUHU216DAVISVP2,2013-02-16 23:05:00,
2013-02-16 16:10:00,61.6,8.3,30.20,ESE,105,7.0,12.0,12,0.00,,,0.00,WUHU216DAVISVP2,2013-02-16 23:10:00,
2013-02-16 16:15:00,61.5,8.2,30.20,ESE,109,5.0,11.0,12,0.00,,,0.00,WUHU216DAVISVP2,2013-02-16 23:15:00,
2013-02-16 16:20:00,61.6,8.3,30.20,ESE,105,5.0,11.0,12,0.00,,,0.00,WUHU216DAVISVP2,2013-02-16 23:20:00,
2013-02-16 16:25:00,61.4,10.0,30.19,ESE,104,5.0,10.0,13,0.00,,,0.00,WUHU216DAVISVP2,2013-02-16 23:25:00,
2013-02-16 16:30:00,61.4,8.1,30.19,ESE,104,5.0,10.0,12,0.00,,,0.00,WUHU216DAVISVP2,2013-02-16 23:30:00,
2013-02-16 16:35:00,61.5,10.0,30.19,East,92,6.0,10.0,13,0.00,,,0.00,WUHU216DAVISVP2,2013-02-16 23:35:00,
2013-02-16 16:40:00,61.4,8.1,30.19,ESE,112,5.0,9.0,12,0.00,,,0.00,WUHU216DAVISVP2,2013-02-16 23:40:00,
2013-02-16 16:46:00,61.3,8.1,30.18,East,101,6.0,15.0,12,0.00,,,0.00,WUHU216DAVISVP2,2013-02-16 23:46:00,
2013-02-16 16:51:00,61.1,9.7,30.18,East,100,5.0,10.0,13,0.00,,,0.00,WUHU216DAVISVP2,2013-02-16 23:51:00,
2013-02-16 16:56:00,60.9,9.6,30.18,East,99,6.0,9.0,13,0.00,,,0.00,WUHU216DAVISVP2,2013-02-16 23:56:00,
2013-02-16 17:01:00,60.7,9.4,30.18,SE,124,6.0,10.0,13,0.00,,,0.00,WUHU216DAVISVP2,2013-02-17 00:01:00,
2013-02-16 17:06:00,60.4,9.2,30.18,ESE,115,6.0,10.0,13,0.00,,,0.00,WUHU216DAVISVP2,2013-02-17 00:06:00,
2013-02-16 17:11:00,60.3,9.1,30.18,ESE,102,6.0,10.0,13,0.00,,,0.00,WUHU216DAVISVP2,2013-02-17 00:11:00,
2013-02-16 17:16:00,60.1,8.9,30.18,ESE,106,5.0,10.0,13,0.00,,,0.00,WUHU216DAVISVP2,2013-02-17 00:16:00,
2013-02-16 17:21:00,59.9,8.8,30.18,ESE,102,6.0,9.0,13,0.00,,,0.00,WUHU216DAVISVP2,2013-02-17 00:21:00,
2013-02-16 17:26:00,59.6,8.5,30.18,ESE,104,6.0,10.0,13,0.00,,,0.00,WUHU216DAVISVP2,2013-02-17 00:26:00,
2013-02-16 17:31:00,59.3,10.0,30.18,ESE,106,6.0,9.0,14,0.00,,,0.00,WUHU216DAVISVP2,2013-02-17 00:31:00,
2013-02-16 17:36:00,59.0,9.7,30.18,ESE,106,5.0,8.0,14,0.00,,,0.00,WUHU216DAVISVP2,2013-02-17 00:36:00,
2013-02-16 17:41:00,58.7,9.5,30.18,ESE,105,3.0,4.0,14,0.00,,,0.00,WUHU216DAVISVP2,2013-02-17 00:41:00,
2013-02-16 17:46:00,58.2,9.1,30.18,North,0,0.0,0.0,14,0.00,,,0.00,WUHU216DAVISVP2,2013-02-17 00:46:00,
2013-02-16 17:51:00,57.6,8.6,30.17,ESE,108,2.0,4.0,14,0.00,,,0.00,WUHU216DAVISVP2,2013-02-17 00:51:00,
2013-02-16 17:56:00,56.8,9.5,30.17,North,0,0.0,0.0,15,0.00,,,0.00,WUHU216DAVISVP2,2013-02-17 00:56:00,
2013-02-16 18:02:00,56.0,8.9,30.17,North,0,0.0,0.0,15,0.00,,,0.00,WUHU216DAVISVP2,2013-02-17 01:02:00,
2013-02-16 18:07:00,55.4,9.9,30.18,North,0,0.0,0.0,16,0.00,,,0.00,WUHU216DAVISVP2,2013-02-17 01:07:00,
2013-02-16 18:10:00,54.7,9.3,30.17,North,0,0.0,0.0,16,0.00,,,0.00,WUHU216DAVISVP2,2013-02-17 01:10:00,
2013-02-16 18:12:00,55.4,9.9,30.18,ESE,104,0.0,0.0,16,0.00,,,0.00,WUHU216DAVISVP2,2013-02-17 01:12:00,
2013-02-16 18:15:00,54.0,10.1,30.18,North,0,0.0,0.0,17,0.00,,,0.00,WUHU216DAVISVP2,2013-02-17 01:15:00,
2013-02-16 18:20:00,53.3,9.5,30.18,North,0,0.0,0.0,17,0.00,,,0.00,WUHU216DAVISVP2,2013-02-17 01:20:00,
2013-02-16 18:25:00,52.6,9.0,30.18,North,0,0.0,0.0,17,0.00,,,0.00,WUHU216DAVISVP2,2013-02-17 01:25:00,
2013-02-16 18:30:00,51.9,9.6,30.18,North,0,0.0,0.0,18,0.00,,,0.00,WUHU216DAVISVP2,2013-02-17 01:30:00,
2013-02-16 18:35:00,51.3,9.2,30.18,North,0,0.0,0.0,18,0.00,,,0.00,WUHU216DAVISVP2,2013-02-17 01:35:00,
2013-02-16 18:40:00,50.8,8.7,30.18,North,0,0.0,0.0,18,0.00,,,0.00,WUHU216DAVISVP2,2013-02-17 01:40:00,
2013-02-16 18:45:00,50.0,9.3,30.18,North,0,0.0,0.0,19,0.00,,,0.00,WUHU216DAVISVP2,2013-02-17 01:45:00,
2013-02-16 18:50:00,49.5,10.0,30.18,North,0,0.0,0.0,20,0.00,,,0.00,WUHU216DAVISVP2,2013-02-17 01:50:00,
2013-02-16 18:55:00,49.4,8.8,30.18,North,0,0.0,0.0,19,0.00,,,0.00,WUHU216DAVISVP2,2013-02-17 01:55:00,
2013-02-16 19:00:00,49.2,8.6,30.18,North,0,0.0,0.0,19,0.00,,,0.00,WUHU216DAVISVP2,2013-02-17 02:00:00,
2013-02-16 19:05:00,50.5,9.7,30.18,ENE,68,1.0,1.0,19,0.00,,,0.00,WUHU216DAVISVP2,2013-02-17 02:05:00,
2013-02-16 19:10:00,51.1,10.2,30.19,ENE,68,1.0,1.0,19,0.00,,,0.00,WUHU216DAVISVP2,2013-02-17 02:10:00,
2013-02-16 19:15:00,51.2,9.1,30.19,North,0,0.0,0.0,18,0.00,,,0.00,WUHU216DAVISVP2,2013-02-17 02:15:00,
2013-02-16 19:20:00,50.9,10.0,30.19,North,0,0.0,0.0,19,0.00,,,0.00,WUHU216DAVISVP2,2013-02-17 02:20:00,
2013-02-16 19:25:00,50.0,10.4,30.19,North,0,0.0,0.0,20,0.00,,,0.00,WUHU216DAVISVP2,2013-02-17 02:25:00,
2013-02-16 19:30:00,49.4,9.9,30.19,North,0,0.0,0.0,20,0.00,,,0.00,WUHU216DAVISVP2,2013-02-17 02:30:00,
2013-02-16 19:35:00,49.2,9.7,30.19,North,0,0.0,0.0,20,0.00,,,0.00,WUHU216DAVISVP2,2013-02-17 02:35:00,
2013-02-16 19:40:00,49.0,9.6,30.19,North,0,0.0,0.0,20,0.00,,,0.00,WUHU216DAVISVP2,2013-02-17 02:40:00,
2013-02-16 19:45:00,48.7,9.3,30.19,North,0,0.0,0.0,20,0.00,,,0.00,WUHU216DAVISVP2,2013-02-17 02:45:00,
2013-02-16 19:50:00,48.2,10.0,30.18,North,0,0.0,0.0,21,0.00,,,0.00,WUHU216DAVISVP2,2013-02-17 02:50:00,
2013-02-16 19:55:00,47.8,9.6,30.18,North,0,0.0,0.0,21,0.00,,,0.00,WUHU216DAVISVP2,2013-02-17 02:55:00,
2013-02-16 20:00:00,47.6,9.5,30.18,North,0,0.0,0.0,21,0.00,,,0.00,WUHU216DAVISVP2,2013-02-17 03:00:00,
2013-02-16 20:05:00,47.6,9.5,30.18,North,0,0.0,0.0,21,0.00,,,0.00,WUHU216DAVISVP2,2013-02-17 03:05:00,
2013-02-16 20:10:00,47.6,9.5,30.18,North,0,0.0,0.0,21,0.00,,,0.00,WUHU216DAVISVP2,2013-02-17 03:10:00,
2013-02-16 20:15:00,47.7,9.6,30.18,North,0,0.0,0.0,21,0.00,,,0.00,WUHU216DAVISVP2,2013-02-17 03:15:00,
2013-02-16 20:20:00,47.5,9.4,30.18,North,0,0.0,0.0,21,0.00,,,0.00,WUHU216DAVISVP2,2013-02-17 03:20:00,
2013-02-16 20:25:00,47.3,9.2,30.18,North,0,0.0,0.0,21,0.00,,,0.00,WUHU216DAVISVP2,2013-02-17 03:25:00,
2013-02-16 20:30:00,46.2,10.3,30.18,North,0,0.0,0.0,23,0.00,,,0.00,WUHU216DAVISVP2,2013-02-17 03:30:00,
2013-02-16 20:35:00,43.3,9.7,30.18,North,0,0.0,0.0,25,0.00,,,0.00,WUHU216DAVISVP2,2013-02-17 03:35:00,
2013-02-16 20:40:00,43.3,9.7,30.19,North,0,0.0,0.0,25,0.00,,,0.00,WUHU216DAVISVP2,2013-02-17 03:40:00,
2013-02-16 20:45:00,43.9,10.2,30.19,North,0,0.0,0.0,25,0.00,,,0.00,WUHU216DAVISVP2,2013-02-17 03:45:00,
2013-02-16 20:50:00,44.3,10.5,30.18,North,0,0.0,0.0,25,0.00,,,0.00,WUHU216DAVISVP2,2013-02-17 03:50:00,
2013-02-16 20:55:00,43.1,10.3,30.19,North,0,0.0,0.0,26,0.00,,,0.00,WUHU216DAVISVP2,2013-02-17 03:55:00,
2013-02-16 21:00:00,42.3,10.5,30.18,North,0,0.0,0.0,27,0.00,,,0.00,WUHU216DAVISVP2,2013-02-17 04:00:00,
2013-02-16 21:05:00,42.9,10.2,30.19,North,0,0.0,0.0,26,0.00,,,0.00,WUHU216DAVISVP2,2013-02-17 04:05:00,
2013-02-16 21:10:00,43.5,9.8,30.18,North,0,0.0,0.0,25,0.00,,,0.00,WUHU216DAVISVP2,2013-02-17 04:10:00,
2013-02-16 21:15:00,44.0,10.3,30.19,North,0,0.0,0.0,25,0.00,,,0.00,WUHU216DAVISVP2,2013-02-17 04:15:00,
2013-02-16 21:20:00,43.4,9.7,30.18,North,0,0.0,0.0,25,0.00,,,0.00,WUHU216DAVISVP2,2013-02-17 04:20:00,
2013-02-16 21:25:00,43.1,10.3,30.18,North,0,0.0,0.0,26,0.00,,,0.00,WUHU216DAVISVP2,2013-02-17 04:25:00,
2013-02-16 21:30:00,43.5,9.8,30.19,North,0,0.0,0.0,25,0.00,,,0.00,WUHU216DAVISVP2,2013-02-17 04:30:00,
2013-02-16 21:35:00,44.0,10.3,30.19,North,0,0.0,0.0,25,0.00,,,0.00,WUHU216DAVISVP2,2013-02-17 04:35:00,
2013-02-16 21:40:00,43.7,10.0,30.19,North,0,0.0,0.0,25,0.00,,,0.00,WUHU216DAVISVP2,2013-02-17 04:40:00,
2013-02-16 21:45:00,43.7,10.9,30.19,North,0,0.0,0.0,26,0.00,,,0.00,WUHU216DAVISVP2,2013-02-17 04:45:00,
2013-02-16 21:50:00,42.4,10.6,30.19,North,0,0.0,0.0,27,0.00,,,0.00,WUHU216DAVISVP2,2013-02-17 04:50:00,
2013-02-16 21:55:00,40.7,9.9,30.19,North,0,0.0,0.0,28,0.00,,,0.00,WUHU216DAVISVP2,2013-02-17 04:55:00,
2013-02-16 22:00:00,40.5,9.7,30.19,North,0,0.0,0.0,28,0.00,,,0.00,WUHU216DAVISVP2,2013-02-17 05:00:00,
2013-02-16 22:05:00,40.4,10.4,30.19,North,0,0.0,0.0,29,0.00,,,0.00,WUHU216DAVISVP2,2013-02-17 05:05:00,
2013-02-16 22:10:00,39.9,10.0,30.18,North,0,0.0,0.0,29,0.00,,,0.00,WUHU216DAVISVP2,2013-02-17 05:10:00,
2013-02-16 22:15:00,39.6,9.7,30.18,North,0,0.0,0.0,29,0.00,,,0.00,WUHU216DAVISVP2,2013-02-17 05:15:00,
2013-02-16 22:20:00,39.2,10.1,30.18,North,0,0.0,0.0,30,0.00,,,0.00,WUHU216DAVISVP2,2013-02-17 05:20:00,
2013-02-16 22:25:00,39.0,9.9,30.18,North,0,0.0,0.0,30,0.00,,,0.00,WUHU216DAVISVP2,2013-02-17 05:25:00,
2013-02-16 22:30:00,39.5,8.9,30.18,North,0,0.0,0.0,28,0.00,,,0.00,WUHU216DAVISVP2,2013-02-17 05:30:00,
2013-02-16 22:35:00,41.1,9.4,30.18,North,0,0.0,0.0,27,0.00,,,0.00,WUHU216DAVISVP2,2013-02-17 05:35:00,
2013-02-16 22:40:00,42.2,9.6,30.18,North,0,0.0,0.0,26,0.00,,,0.00,WUHU216DAVISVP2,2013-02-17 05:40:00,
2013-02-16 22:45:00,41.1,9.4,30.18,North,0,0.0,0.0,27,0.00,,,0.00,WUHU216DAVISVP2,2013-02-17 05:45:00,
2013-02-16 22:50:00,40.0,10.1,30.18,North,0,0.0,0.0,29,0.00,,,0.00,WUHU216DAVISVP2,2013-02-17 05:50:00,
2013-02-16 22:55:00,39.0,9.2,30.18,North,0,0.0,0.0,29,0.00,,,0.00,WUHU216DAVISVP2,2013-02-17 05:55:00,
2013-02-16 23:00:00,39.3,8.7,30.18,North,0,0.0,0.0,28,0.00,,,0.00,WUHU216DAVISVP2,2013-02-17 06:00:00,
2013-02-16 23:05:00,39.5,10.4,30.17,North,0,0.0,0.0,30,0.00,,,0.00,WUHU216DAVISVP2,2013-02-17 06:05:00,
2013-02-16 23:10:00,37.2,9.8,30.17,North,0,0.0,0.0,32,0.00,,,0.00,WUHU216DAVISVP2,2013-02-17 06:10:00,
2013-02-16 23:15:00,37.6,8.7,30.17,North,0,0.0,0.0,30,0.00,,,0.00,WUHU216DAVISVP2,2013-02-17 06:15:00,
2013-02-16 23:20:00,39.1,9.3,30.17,North,0,0.0,0.0,29,0.00,,,0.00,WUHU216DAVISVP2,2013-02-17 06:20:00,
2013-02-16 23:25:00,38.1,9.9,30.17,North,0,0.0,0.0,31,0.00,,,0.00,WUHU216DAVISVP2,2013-02-17 06:25:00,
2013-02-16 23:30:00,38.0,8.3,30.16,North,0,0.0,0.0,29,0.00,,,0.00,WUHU216DAVISVP2,2013-02-17 06:30:00,
2013-02-16 23:35:00,38.8,9.0,30.16,North,0,0.0,0.0,29,0.00,,,0.00,WUHU216DAVISVP2,2013-02-17 06:35:00,
2013-02-16 23:40:00,38.8,9.0,30.16,North,0,0.0,0.0,29,0.00,,,0.00,WUHU216DAVISVP2,2013-02-17 06:40:00,
2013-02-16 23:45:00,38.6,8.8,30.16,North,0,0.0,0.0,29,0.00,,,0.00,WUHU216DAVISVP2,2013-02-17 06:45:00,
2013-02-16 23:50:00,38.9,9.1,30.16,North,0,0.0,0.0,29,0.00,,,0.00,WUHU216DAVISVP2,2013-02-17 06:50:00,
2013-02-16 23:55:00,39.2,9.4,30.15,North,0,0.0,0.0,29,0.00,,,0.00,WUHU216DAVISVP2,2013-02-17 06:55:00,